Flag Weather past 2 weeks in Lafayette, Louisiana, U.S.A.

Now
57 °F

Clear.


Feels Like: 55 °F
Forecast: 41 / 59 °F
Wind: 10 mph from West

Location: Lafayette Regional Airport

Current Time: Nov 26, 2014 at 10:53:43 PM

Latest Report: Nov 26, 2014 at 9:53 PM


Visibility: 10 mi

Pressure: 30.26 "Hg

Humidity: 74%

Dew point: 49 °F

Location of LafayetteLocation

Historic Weather in Lafayette — Graph

°F

Lafayette temperature yesterday

Maximum temperature yesterday: 57 °F (at 11:53 AM)
Minimum temperature yesterday: 38 °F (at 11:53 PM)
Average temperature yesterday: 49 °F

Past Weeks' High & Low Weather Summary

 TemperatureHumidityPressure
High74 °F (Nov 16, 10:53 AM)100% (Nov 16, 5:02 PM)30.53 "Hg (Nov 16, 5:02 PM)
Low30 °F (Nov 19, 1:53 AM)25% (Nov 19, 2:53 PM)29.60 "Hg (Nov 23, 2:53 PM)
Average52 °F67%30.17 "Hg
* Reported Nov 11 10:00 PM — Nov 26 9:53 PM, Lafayette, Weather by CustomWeather, © 2014

Note: Actual official high and low records may vary slightly from our data, if they occured in-between our weather recording intervals... More about our weather records

Advertising

Lafayette weather history for previous 24 hours

 ConditionsComfort  
Time TempWeatherWind HumidityBarometerVisibility
9:53 PM
Nov 26
57 °FClear.10 mph74%30.26 "Hg10 mi
8:53 PM57 °FClear.9 mph74%30.25 "Hg10 mi
7:53 PM58 °FClear.9 mph72%30.24 "Hg10 mi
6:53 PM60 °FClear.12 mph62%30.22 "Hg10 mi
5:53 PM62 °FClear.13 mph54%30.20 "Hg10 mi
4:53 PM64 °FSunny.13 mph43%30.19 "Hg10 mi
3:53 PM67 °FSunny.14 mph37%30.19 "Hg10 mi
2:53 PM69 °FSunny.17 mph31%30.16 "Hg10 mi
1:53 PM69 °FSunny.15 mph32%30.17 "Hg10 mi
12:53 PM69 °FSunny.21 mph32%30.18 "Hg10 mi
11:53 AM68 °FSunny.17 mph35%30.22 "Hg10 mi
10:53 AM66 °FSunny.18 mph42%30.24 "Hg10 mi
9:53 AM62 °FSunny.8 mph54%30.25 "Hg10 mi
8:53 AM55 °FSunny.7 mph69%30.25 "Hg10 mi
7:53 AM47 °FSunny.6 mph80%30.26 "Hg10 mi
6:53 AM38 °FFog.No wind97%30.24 "Hg3 mi
5:53 AM41 °FClear.3 mph80%30.22 "Hg5 mi
5:02 AM37 °FFog.No wind96%30.21 "Hg3 mi
5:00 AM37 °FFog.No wind96%30.21 "Hg2 mi
3:53 AM38 °FClear.No wind86%30.22 "Hg10 mi
2:53 AM40 °FClear.3 mph83%30.21 "Hg10 mi
1:53 AM38 °FClear.No wind90%30.22 "Hg10 mi
12:53 AM38 °FPassing clouds.No wind90%30.22 "Hg8 mi
11:53 PM
Nov 25
38 °FFog.No wind93%30.23 "Hg5 mi
10:53 PM39 °FClear.No wind89%30.25 "Hg10 mi
Weather by CustomWeather, © 2014

See weather overviewHow to use our weather pages